Regional Weather Roundup
Issued by NWS

Home | Current Version | Previous Version | Text Only | Print | Product List | Glossary Off
Versions: 1 2 3 4 5 6 7 8 9 10 11 12 13 14 15 16 17 18 19 20 21 22 23 24 25 26 27

000
ASUS45 KBOI 291210
RWRID

IDAHO REGIONAL WEATHER ROUNDUP
NATIONAL WEATHER SERVICE BOISE ID
600 AM MDT MON AUG 29 2016

NOTE: "FAIR" INDICATES FEW OR NO CLOUDS BELOW 12000 FEET
WITH NO SIGNIFICANT WEATHER AND/OR OBSTRUCTIONS TO VISIBILITY

IDZ012-014-291300-
SOUTHWEST IDAHO


CITY           SKY/WX    TMP DP  RH WIND       PRES   REMARKS
BOISE          PTCLDY    69  40  34 SE12      30.07R
CALDWELL       PTCLDY    58  46  64 SE5       30.07R
MOUNTAIN HOME  CLEAR     55  39  54 E10       30.09R
$$

IDZ016-017-291300-
SOUTHCENTRAL IDAHO


CITY           SKY/WX    TMP DP  RH WIND       PRES   REMARKS
BURLEY         PTCLDY    47  42  83 CALM      30.19R
JEROME         CLEAR     61  39  44 NE13      30.17R
TWIN FALLS     CLEAR     58  36  43 S9        30.17R
$$

IDZ019>023-291300-
SOUTHEAST IDAHO


CITY           SKY/WX    TMP DP  RH WIND       PRES   REMARKS
IDAHO FALLS    CLEAR     44  39  82 N3        30.26R
POCATELLO      CLEAR     50  38  63 CALM      30.24R
REXBURG        NOT AVBL
$$

IDZ006-010-011-018-031-032-291300-
CENTRAL IDAHO MOUNTAINS


CITY           SKY/WX    TMP DP  RH WIND       PRES   REMARKS
MCCALL         PTCLDY    48  38  68 CALM      30.23S
HAILEY         CLEAR     54  36  50 NW10      30.30R
STANLEY          N/A     35  31  85 CALM      30.39S
SALMON         CLEAR     46  37  71 CALM      30.26R
CHALLIS        CLEAR     47  31  53 CALM      30.29S
$$

IDZ002-004-006-007-026-291300-
NORTHERN IDAHO


CITY           SKY/WX    TMP DP  RH WIND       PRES   REMARKS
LEWISTON       PTCLDY    63  41  44 E5        30.03F
LOWELL           N/A     54  46  74 CALM      30.14S
COEUR D`ALENE  CLEAR     55  41  58 NE9       30.09S
MULLAN PASS    PTCLDY    60  32  34 S5        30.28S
$$




USA.gov is the U.S. government's official web portal to all federal, state and local government web resources and services.